This is the latest recevied weather packets stored in our database for station/object WX4SGA. If no packets are shown the sender has not sent any weather packets the latest 10 day(s).
| Time | Temp. | Humidity | Pressure | Rain* | Wind** | Luminosity | Snow |
|---|---|---|---|---|---|---|---|
| 1778253093 | 21.67° C | 71% | 1017.6 hPa | 0 mm | - | 448 W/m² | - |
| 1778252790 | 21.67° C | 70% | 1017.6 hPa | 0 mm | - | 223 W/m² | - |
| 1778252487 | 21.11° C | 71% | 1017.3 hPa | 0 mm | - | 226 W/m² | - |
| 1778252182 | 21.11° C | 69% | 1017.3 hPa | 0 mm | - | 237 W/m² | - |
| 1778251879 | 21.11° C | 72% | 1017.6 hPa | 0 mm | - | 247 W/m² | - |
| 1778251577 | 21.67° C | 71% | 1017.6 hPa | 0 mm | - | 250 W/m² | - |
| 1778251274 | 21.11° C | 71% | 1017.6 hPa | 0 mm | - | 208 W/m² | - |
| 1778250972 | 21.11° C | 72% | 1017.3 hPa | 0 mm | - | 282 W/m² | - |
| 1778250668 | 21.11° C | 72% | 1017.3 hPa | 0 mm | - | 211 W/m² | - |
| 1778250365 | 21.11° C | 72% | 1017.3 hPa | 0 mm | - | 213 W/m² | - |
| 1778250062 | 21.11° C | 72% | 1017.3 hPa | 0 mm | - | 201 W/m² | - |
| 1778249758 | 20.56° C | 72% | 1017.3 hPa | 0 mm | - | 192 W/m² | - |
| 1778249456 | 20.56° C | 71% | 1017.3 hPa | 0 mm | - | 176 W/m² | - |
| 1778249153 | 20.56° C | 74% | 1017.3 hPa | 0 mm | - | 173 W/m² | - |
| 1778248849 | 21.11° C | 71% | 1017.3 hPa | 0 mm | - | 220 W/m² | - |
| 1778248545 | 20.56° C | 74% | 1017.3 hPa | 0 mm | - | 383 W/m² | - |
| 1778248242 | 20.56° C | 76% | 1017.6 hPa | 0 mm | - | 187 W/m² | - |
| 1778247938 | 20.56° C | 78% | 1017.6 hPa | 0 mm | - | 210 W/m² | - |
| 1778247635 | 20.56° C | 78% | 1017.6 hPa | 0 mm | - | 209 W/m² | - |
| 1778247332 | 20° C | 79% | 1018 hPa | 0 mm | - | 144 W/m² | - |
| 1778247029 | 20.56° C | 79% | 1018 hPa | 0 mm | - | 135 W/m² | - |
| 1778246728 | 20° C | 80% | 1017.6 hPa | 0 mm | - | 143 W/m² | - |
| 1778246424 | 20° C | 80% | 1018 hPa | 0 mm | - | 124 W/m² | - |
| 1778246119 | 20° C | 81% | 1017.3 hPa | 0 mm | - | 118 W/m² | - |
| 1778245816 | 20° C | 81% | 1017.3 hPa | 0 mm | - | 129 W/m² | - |
* Rain latest hour (hover to see other rain measurements)
** Current wind speed in m/s (hover to see current wind gust speed)